Flag for U.S.A. Weather past 2 weeks in Metairie, Louisiana, U.S.A.

Now
88 °F

Scattered clouds.


Feels Like: 96 °F
Forecast: 79 / 92 °F
Wind: 12 mph from South

Location: New Orleans International Airport

Current Time: Jul 6, 2015 at 7:43:58 PM

Latest Report: Jul 6, 2015 at 6:53 PM


Visibility: 10 mi

Pressure: 30.07 "Hg

Humidity: 61%

Dew point: 73 °F

Location of MetairieLocation

Historic Weather in Metairie — Graph

°F

Metairie temperature yesterday

Maximum temperature yesterday: 92 °F (at 2:53 PM)
Minimum temperature yesterday: 72 °F (at 5:59 PM)
Average temperature yesterday: 81 °F

Past Weeks' High & Low Weather Summary

 TemperatureHumidityPressure
High93 °F (Jun 23, 12:53 PM)93% (Jul 5, 5:59 PM)30.19 "Hg (Jul 5, 5:59 PM)
Low72 °F (Jul 5, 5:59 PM)44% (Jul 3, 3:53 PM)29.95 "Hg (Jun 27, 6:53 PM)
Average82 °F73%30.07 "Hg
* Reported Jun 21 5:53 PM — Jul 6 5:53 PM, Metairie, Weather by CustomWeather, © 2015

Note: Actual official high and low records may vary slightly from our data, if they occured in-between our weather recording intervals... More about our weather records

Advertising

Metairie weather history for previous 24 hours

 ConditionsComfort  
Time TempWeatherWind HumidityBarometerVisibility
5:53 PM
Mon, Jul 6
89 °FPartly sunny.10 mph57%30.09 "Hg10 mi
4:53 PM90 °FBroken clouds.9 mph57%30.11 "Hg10 mi
3:53 PM90 °FPartly sunny.13 mph57%30.12 "Hg10 mi
2:53 PM91 °FBroken clouds.8 mph56%30.13 "Hg10 mi
1:53 PM91 °FBroken clouds.8 mph60%30.14 "Hg10 mi
12:53 PM89 °FMore clouds than sun.6 mph61%30.16 "Hg10 mi
11:53 AM87 °FMore clouds than sun.10 mph65%30.17 "Hg10 mi
10:53 AM86 °FMore clouds than sun.6 mph72%30.18 "Hg10 mi
9:53 AM83 °FOvercast.7 mph74%30.18 "Hg10 mi
8:53 AM81 °FPartly sunny.No wind77%30.19 "Hg10 mi
7:59 AM79 °FCloudy.No wind79%30.17 "Hg10 mi
6:53 AM77 °FPartly cloudy.No wind85%30.16 "Hg10 mi
5:53 AM76 °FOvercast.3 mph85%30.14 "Hg10 mi
4:53 AM76 °FPassing clouds.No wind82%30.11 "Hg10 mi
3:53 AM75 °FPassing clouds.No wind85%30.09 "Hg10 mi
2:53 AM75 °FPassing clouds.3 mph85%30.09 "Hg10 mi
1:53 AM75 °FPassing clouds.5 mph82%30.10 "Hg10 mi
12:53 AM75 °FPassing clouds.8 mph82%30.09 "Hg10 mi
11:53 PM
Sun, Jul 5
73 °FPassing clouds.9 mph81%30.10 "Hg10 mi
10:53 PM73 °FPassing clouds.6 mph81%30.12 "Hg10 mi
9:53 PM74 °FPassing clouds.8 mph79%30.10 "Hg10 mi
8:53 PM75 °FPartly sunny.9 mph74%30.15 "Hg10 mi
7:53 PM73 °FThunderstorms. Partly sunny.12 mph84%30.18 "Hg10 mi
Weather by CustomWeather, © 2015

See weather overviewHow to use our weather pages